Location: Newcastle Observatory
(43.9158°N, 78.5831°W)
Time: 03:08:12
(UTC-04:00)

Amateur Radio Satellites - All Passes

Search period start: 06 July 2015 02:38
Search period end: 07 July 2015 02:38
Location: Newcastle Observatory, 43.9158°N, 78.5831°W

Satellite Date Start Highest point End Downlink Frequencies (MHz)
Time Altitude Azimuth
BEESAT 06 Jul 02:38:15 02:42:51 47° 261° (W) 02:47:30 436.000
STARS 06 Jul 02:39:09 02:42:23 21° 66° (ENE) 02:45:43 437.465
SWISSCUBE 06 Jul 02:54:36 02:58:52 31° 265° (W) 03:03:06 437.505
Cosmos 2491 06 Jul 02:58:45 03:07:34 84° 81° (E) 03:16:18 435.465 / 435.565
Oscar 19 06 Jul 02:59:46 03:04:56 86° 282° (WNW) 03:10:05 437.125/150
ITUPSAT 1 06 Jul 03:00:45 03:04:59 30° 265° (W) 03:09:12 437.325
ITAMSAT 1 06 Jul 03:15:04 03:19:53 38° 97° (E) 03:24:44 435.822/435.867
Gurwin Techsat 1B 06 Jul 03:18:16 03:23:19 43° 98° (E) 03:28:23 435.225
KKS-1 06 Jul 03:26:07 03:30:35 82° 256° (WSW) 03:35:04 437.445
AIST 1 06 Jul 03:26:24 03:30:45 67° 265° (W) 03:35:01
YUBILEINY 06 Jul 03:33:19 03:41:44 59° 92° (E) 03:50:15 435.215
JAS-2 06 Jul 03:33:32 03:38:43 24° 91° (E) 03:44:33 435.910
AO-7 06 Jul 03:48:58 03:54:07 18° 87° (E) 03:59:43 29.400- 29.500
MOZHAYETS 4 06 Jul 03:56:18 03:59:50 23° 66° (ENE) 04:03:30
STARS 06 Jul 04:14:26 04:18:36 41° 262° (W) 04:22:46 437.465
HORYU 2 06 Jul 04:17:54 04:21:20 22° 93° (E) 04:24:52 437.375
RS-15 06 Jul 04:22:36 04:33:19 55° 317° (NW) 04:44:26 29.354- 29.394
Oscar 19 06 Jul 04:41:19 04:43:36 13° 302° (WNW) 04:45:39 437.125/150
ITAMSAT 1 06 Jul 04:54:47 04:59:18 30° 294° (WNW) 05:03:44 435.822/435.867
Cosmos 2491 06 Jul 04:57:16 05:03:28 21° 281° (W) 05:09:14 435.465 / 435.565
Gurwin Techsat 1B 06 Jul 04:58:39 05:03:07 27° 295° (WNW) 05:07:28 435.225
JAS-2 06 Jul 05:17:39 05:24:15 69° 287° (WNW) 05:31:36 435.910
YUBILEINY 06 Jul 05:31:27 05:39:09 33° 294° (WNW) 05:46:42 435.215
MOZHAYETS 4 06 Jul 05:32:34 05:36:52 39° 263° (W) 05:41:12
AO-7 06 Jul 05:39:49 05:48:16 86° 106° (ESE) 05:56:38 29.400- 29.500
HORYU 2 06 Jul 05:53:58 05:58:08 38° 290° (WNW) 06:02:15 437.375
Cosmos 2504 06 Jul 05:58:44 06:05:23 54° 92° (E) 06:12:08 435.465 / 435.565
CUBESAT XI-V 06 Jul 06:03:50 06:08:12 40° 71° (ENE) 06:12:39 437.345
STRAND 1 06 Jul 06:04:38 06:08:02 19° 62° (ENE) 06:11:37 437.568
CUTE-I 06 Jul 06:06:33 06:06:45 10° 84° (E) 06:07:20 437.470
Cubesat XI-IV 06 Jul 06:38:06 06:42:08 22° 91° (E) 06:46:18 437.490
RS-15 06 Jul 06:39:51 06:49:01 27° 348° (NNW) 06:58:25 29.354- 29.394
JAS-2 06 Jul 07:05:02 07:08:31 14° 303° (WNW) 07:11:49 435.910
PRISM 06 Jul 07:07:33 07:11:39 58° 73° (ENE) 07:15:47 437.425
BEESAT 3 06 Jul 07:09:38 07:13:26 40° 118° (ESE) 07:17:19 437.485
AIST 2 06 Jul 07:20:25 07:21:13 11° 109° (ESE) 07:22:16 435.215
BEESAT 2 06 Jul 07:24:20 07:28:14 45° 119° (ESE) 07:32:13 435.950
DANDE 06 Jul 07:27:01 07:31:59 23° 93° (E) 07:36:18 436.750
AO-7 06 Jul 07:33:42 07:40:13 25° 308° (NW) 07:46:29 29.400- 29.500
ISS 06 Jul 07:38:13 07:40:53 24° 137° (SE) 07:43:34 145.825
O/OREOS (USA 219) 06 Jul 07:41:17 07:45:41 63° 111° (ESE) 07:50:07 437.305
STRAND 1 06 Jul 07:41:41 07:46:48 64° 259° (WSW) 07:51:57 437.568
CUBESAT XI-V 06 Jul 07:42:02 07:45:49 23° 268° (W) 07:49:31 437.345
CUTE-I 06 Jul 07:42:26 07:47:50 80° 103° (ESE) 07:53:11 437.470
CUSAT 1 06 Jul 07:51:59 07:57:50 45° 97° (E) 08:02:22 437.405
Cosmos 2504 06 Jul 07:52:12 07:58:02 27° 293° (WNW) 08:03:46 435.465 / 435.565
VERMONT LUNAR 06 Jul 07:53:47 07:56:25 25° 162° (SSE) 07:59:04 437.305
M-CUBED/EXP-1 PRIME 06 Jul 08:08:56 08:11:46 27° 64° (ENE) 08:14:47 437.505
GONETS M04 06 Jul 08:12:07 08:18:34 25° 81° (E) 08:25:19
Cubesat XI-IV 06 Jul 08:17:23 08:22:36 52° 290° (WNW) 08:27:46 437.490
BRITE-PL 06 Jul 08:26:04 08:29:29 23° 92° (E) 08:32:51 437.365/2234.400
PHONESAT 2.4 06 Jul 08:38:41 08:40:54 16° 154° (SSE) 08:43:10 2401.200-2431.200
PRISM 06 Jul 08:45:27 08:47:31 13° 271° (W) 08:49:25 437.425
BEESAT 3 06 Jul 08:48:07 08:51:33 24° 317° (NW) 08:54:56 437.485
AIST 2 06 Jul 08:54:57 08:59:13 84° 304° (NW) 09:03:31 435.215
SEEDS 06 Jul 08:55:23 08:57:19 13° 88° (E) 08:59:26 437.485
RS-15 06 Jul 08:56:14 09:06:04 32° 22° (NNE) 09:16:27 29.354- 29.394
BEESAT 2 06 Jul 09:03:10 09:06:31 23° 318° (NW) 09:09:49 435.950
AAUSAT CUBESAT 2 06 Jul 09:03:12 09:03:27 10° 86° (E) 09:03:58 437.432
AUBIESAT-1 06 Jul 09:06:54 09:10:12 62° 253° (WSW) 09:13:41 437.475
DANDE 06 Jul 09:08:14 09:15:05 58° 282° (WNW) 09:20:15 436.750
ISS 06 Jul 09:13:56 09:17:06 50° 334° (NNW) 09:20:18 145.825
O/OREOS (USA 219) 06 Jul 09:22:43 09:25:36 16° 310° (NW) 09:28:22 437.305
CUTE-I 06 Jul 09:24:02 09:27:19 16° 301° (WNW) 09:30:23 437.470
COMPASS 1 06 Jul 09:28:20 09:31:44 24° 93° (E) 09:35:11 437.405
GOMX 1 06 Jul 09:29:18 09:33:29 67° 101° (E) 09:37:36 467.674
VERMONT LUNAR 06 Jul 09:30:00 09:33:00 44° 178° (S) 09:36:00 437.305
Oscar 11 06 Jul 09:34:42 09:35:35 11° 86° (E) 09:36:43 145.826/435.025
CUSAT 1 06 Jul 09:35:44 09:40:27 24° 287° (WNW) 09:44:12 437.405
CUBEBUG 2 06 Jul 09:36:28 09:37:06 10° 87° (E) 09:38:00 437.445
CUTE 1.7 + AOD 2 06 Jul 09:44:09 09:48:22 54° 99° (E) 09:52:35 437.475
M-CUBED/EXP-1 PRIME 06 Jul 09:44:19 09:46:43 18° 262° (W) 09:49:07 437.505
HO-68 06 Jul 09:44:46 09:51:49 57° 101° (E) 09:58:51 435.675
CANX-2 06 Jul 09:47:46 09:52:04 66° 101° (E) 09:56:20 2200.000
UNISAT 6 06 Jul 10:01:46 10:05:03 23° 67° (ENE) 10:08:26 437.425
DOVE 4 06 Jul 10:03:57 10:08:07 82° 284° (WNW) 10:12:17 437.250
BRITE-PL 06 Jul 10:04:19 10:08:08 30° 291° (WNW) 10:11:46 437.365/2234.400
FUNcube-1 06 Jul 10:04:26 10:06:21 13° 89° (E) 10:08:30 145.935
GONETS M04 06 Jul 10:05:51 10:14:39 75° 281° (W) 10:23:25
PHONESAT 2.4 06 Jul 10:15:12 10:18:26 40° 170° (S) 10:21:41 2401.200-2431.200
UWE-3 06 Jul 10:21:01 10:24:33 26° 94° (E) 10:28:13 435.000/436.395/437.385
QB50P1 06 Jul 10:24:58 10:27:41 17° 65° (ENE) 10:30:32 145.935-145.965
SEEDS 06 Jul 10:29:21 10:33:33 59° 286° (WNW) 10:37:45 437.485
CINEMA 3 06 Jul 10:35:08 10:39:19 83° 284° (WNW) 10:43:35 145.822/145.860
AAUSAT CUBESAT 2 06 Jul 10:35:25 10:39:38 74° 285° (WNW) 10:43:50 437.432
AIST 2 06 Jul 10:36:01 10:38:30 15° 325° (NW) 10:40:51 435.215
DELFI C3 06 Jul 10:37:35 10:41:20 35° 97° (E) 10:45:06 145.870
NANOSAT C BR1 06 Jul 10:37:45 10:41:01 23° 67° (ENE) 10:44:22 145.865
DUCHIFAT 1 06 Jul 10:43:47 10:47:13 25° 68° (ENE) 10:50:44 145.980
ANTELSAT 06 Jul 10:45:16 10:49:29 64° 74° (ENE) 10:53:43 437.575/2403.000
DX 1 06 Jul 10:49:10 10:51:25 14° 89° (E) 10:53:50 434.975-435.025
POLYITAN 1 06 Jul 10:51:08 10:54:52 31° 70° (ENE) 10:58:39 437.675
ISS 06 Jul 10:51:26 10:54:02 21° 354° (N) 10:56:36 145.825
Cosmos 2499 06 Jul 10:52:07 10:58:48 49° 91° (E) 11:05:41 435.465 / 435.565
BUGSAT 1 06 Jul 10:52:10 10:55:20 21° 67° (ENE) 10:58:33 437.445
TIGRISAT 06 Jul 10:56:39 11:00:56 82° 77° (ENE) 11:05:12 435.000
ZACube-1 06 Jul 11:03:38 11:07:49 59° 100° (E) 11:12:05 437.345
COMPASS 1 06 Jul 11:03:39 11:07:27 32° 290° (WNW) 11:11:12 437.405
UKube-1 06 Jul 11:06:20 11:09:27 20° 92° (E) 11:12:41 .
HUMSAT D 06 Jul 11:06:28 11:10:00 27° 94° (E) 11:13:38 437.325/437.525
VERMONT LUNAR 06 Jul 11:06:49 11:09:36 29° 195° (SSW) 11:12:24 437.305
Oscar 11 06 Jul 11:08:00 11:12:22 74° 285° (WNW) 11:16:42 145.826/435.025
RS-15 06 Jul 11:09:16 11:20:57 74° 51° (NE) 11:33:07 29.354- 29.394
GOMX 1 06 Jul 11:09:28 11:11:09 12° 298° (WNW) 11:12:36 467.674
CUBEBUG 2 06 Jul 11:10:09 11:14:21 72° 285° (WNW) 11:18:39 437.445
QB50P2 06 Jul 11:19:58 11:24:10 65° 74° (ENE) 11:28:23 145.880/145.840
POPSAT HIP 1 06 Jul 11:20:10 11:24:22 63° 74° (ENE) 11:28:34 437.405
CUTE 1.7 + AOD 2 06 Jul 11:21:14 11:23:54 16° 295° (WNW) 11:26:24 437.475
CANX-2 06 Jul 11:25:22 11:27:31 13° 297° (WNW) 11:29:29 2200.000
HO-68 06 Jul 11:33:05 11:39:14 31° 300° (WNW) 11:45:16 435.675
AISAT 06 Jul 11:34:03 11:37:39 25° 94° (E) 11:41:18 437.250
UNISAT 6 06 Jul 11:37:46 11:41:42 34° 263° (W) 11:45:36 437.425
FUNcube-1 06 Jul 11:38:57 11:43:06 58° 286° (WNW) 11:47:19 145.935
CUBEBUG 1 06 Jul 11:45:55 11:48:52 18° 91° (E) 11:51:55 437.445
PHONESAT 2.4 06 Jul 11:52:53 11:56:11 44° 187° (S) 11:59:30 2401.200-2431.200
UWE-3 06 Jul 11:57:26 12:01:06 29° 291° (WNW) 12:04:48 435.000/436.395/437.385
QB50P1 06 Jul 11:59:07 12:03:14 47° 261° (W) 12:07:20 145.935-145.965
50 SAT 06 Jul 12:05:02 12:08:55 61° 101° (E) 12:12:49 437.505
GONETS M04 06 Jul 12:07:57 12:13:25 17° 305° (NW) 12:18:25
NANOSAT C BR1 06 Jul 12:12:48 12:16:42 34° 263° (W) 12:20:34 145.865
ESTCUBE 1 06 Jul 12:13:04 12:17:22 41° 98° (E) 12:21:40 437.505/2401.250
DELFI C3 06 Jul 12:13:08 12:16:13 21° 293° (WNW) 12:19:13 145.870
DUCHIFAT 1 06 Jul 12:19:11 12:22:57 30° 265° (W) 12:26:40 145.980
VELOX 1 06 Jul 12:22:07 12:26:34 77° 104° (ESE) 12:30:57 145.980
DX 1 06 Jul 12:23:49 12:28:05 56° 287° (WNW) 12:32:19 434.975-435.025
ANTELSAT 06 Jul 12:25:02 12:26:48 12° 272° (W) 12:28:19 437.575/2403.000
BUGSAT 1 06 Jul 12:26:40 12:30:36 36° 263° (W) 12:34:30 437.445
POLYITAN 1 06 Jul 12:27:20 12:30:49 24° 266° (W) 12:34:15 437.675
ISS 06 Jul 12:28:21 12:31:08 25° 14° (NNE) 12:33:55 145.825
SPROUT 06 Jul 12:39:48 12:42:55 20° 92° (E) 12:46:09 437.525
Oscar 19 06 Jul 12:40:24 12:44:11 22° 64° (ENE) 12:48:07 437.125/150
ZACube-1 06 Jul 12:41:26 12:43:47 14° 296° (WNW) 12:46:01 437.345
UKube-1 06 Jul 12:41:43 12:45:47 40° 290° (WNW) 12:49:48 .
HUMSAT D 06 Jul 12:42:09 12:45:43 27° 291° (WNW) 12:49:15 437.325/437.525
Cosmos 2499 06 Jul 12:46:08 12:52:18 31° 292° (WNW) 12:58:29 435.465 / 435.565
QB50P2 06 Jul 12:58:55 13:00:35 12° 272° (W) 13:02:00 145.880/145.840
POPSAT HIP 1 06 Jul 12:58:56 13:00:44 12° 272° (W) 13:02:18 437.405
ITAMSAT 1 06 Jul 13:00:26 13:00:47 10° 55° (NE) 13:01:25 435.822/435.867
Gurwin Techsat 1B 06 Jul 13:04:55 13:06:45 12° 57° (ENE) 13:08:51 435.225
AISAT 06 Jul 13:10:19 13:14:17 33° 291° (WNW) 13:18:12 437.250
TISAT 1 06 Jul 13:12:45 13:16:23 29° 95° (E) 13:20:03 437.305
CUBEBUG 1 06 Jul 13:21:19 13:25:29 44° 289° (WNW) 13:29:35 437.445
RS-15 06 Jul 13:22:25 13:32:45 36° 252° (WSW) 13:43:05 29.354- 29.394
PHONESAT 2.4 06 Jul 13:31:06 13:33:48 21° 202° (SSW) 13:36:29 2401.200-2431.200
50 SAT 06 Jul 13:41:27 13:43:06 12° 296° (WNW) 13:44:35 437.505
YUBILEINY 06 Jul 13:41:49 13:49:19 32° 66° (ENE) 13:57:01 435.215
ESTCUBE 1 06 Jul 13:50:30 13:54:01 22° 294° (WNW) 13:57:24 437.505/2401.250
VELOX 1 06 Jul 14:00:40 14:02:33 12° 299° (WNW) 14:04:15 145.980
ISS 06 Jul 14:04:35 14:07:51 85° 206° (SSW) 14:11:04 145.825
Cosmos 2491 06 Jul 14:08:21 14:13:57 20° 79° (E) 14:19:58 435.465 / 435.565
SPROUT 06 Jul 14:15:12 14:19:11 38° 289° (WNW) 14:23:07 437.525
Oscar 19 06 Jul 14:18:13 14:23:14 52° 260° (W) 14:28:15 437.125/150
ITAMSAT 1 06 Jul 14:34:14 14:39:23 66° 73° (ENE) 14:44:37 435.822/435.867
BEESAT 06 Jul 14:36:58 14:41:27 39° 97° (E) 14:45:57 436.000
Gurwin Techsat 1B 06 Jul 14:40:38 14:45:57 78° 74° (ENE) 14:51:18 435.225
TISAT 1 06 Jul 14:48:35 14:52:06 26° 292° (WNW) 14:55:32 437.305
AO-7 06 Jul 14:49:08 14:56:09 32° 56° (NE) 15:03:20 29.400- 29.500
SWISSCUBE 06 Jul 14:52:45 14:57:31 60° 101° (E) 15:02:16 437.505
ITUPSAT 1 06 Jul 14:59:08 15:03:56 63° 102° (ESE) 15:08:42 437.325
KKS-1 06 Jul 15:16:54 15:19:46 17° 91° (E) 15:22:46 437.445
HORYU 2 06 Jul 15:17:37 15:21:10 25° 67° (ENE) 15:24:48 437.375
PCSat 06 Jul 15:20:11 15:24:59 34° 112° (ESE) 15:29:53 145.827
BEESAT 3 06 Jul 15:26:46 15:30:36 39° 49° (NE) 15:34:25 437.485
JAS-2 06 Jul 15:32:19 15:37:24 59° 72° (ENE) 15:42:50 435.910
AIST 2 06 Jul 15:38:00 15:40:33 16° 36° (NE) 15:43:10 435.215
YUBILEINY 06 Jul 15:38:13 15:46:49 62° 268° (W) 15:55:24 435.215
BEESAT 2 06 Jul 15:42:04 15:46:01 44° 49° (NE) 15:49:54 435.950
ISS 06 Jul 15:42:39 15:43:48 11° 228° (SW) 15:44:49 145.825
Cosmos 2504 06 Jul 15:42:52 15:47:52 19° 62° (ENE) 15:53:24 435.465 / 435.565
AIST 1 06 Jul 15:56:47 16:01:09 67° 97° (E) 16:05:33
Cosmos 2491 06 Jul 16:00:54 16:09:46 89° 283° (WNW) 16:18:38 435.465 / 435.565
STARS 06 Jul 16:02:39 16:06:33 31° 96° (E) 16:10:28 437.465
O/OREOS (USA 219) 06 Jul 16:11:18 16:14:31 19° 52° (NE) 16:17:51 437.305
SO-50 06 Jul 16:14:29 16:18:23 27° 114° (ESE) 16:22:30 436.795
BEESAT 06 Jul 16:15:10 16:19:08 25° 294° (WNW) 16:23:00 436.000
ITAMSAT 1 06 Jul 16:16:06 16:19:28 16° 271° (W) 16:22:37 435.822/435.867
Gurwin Techsat 1B 06 Jul 16:23:44 16:26:39 14° 273° (W) 16:29:17 435.225
SWISSCUBE 06 Jul 16:31:44 16:34:57 18° 298° (WNW) 16:38:00 437.505
ITUPSAT 1 06 Jul 16:38:14 16:41:22 17° 298° (WNW) 16:44:21 437.325
AO-7 06 Jul 16:40:10 16:48:28 67° 256° (WSW) 16:56:49 29.400- 29.500
KKS-1 06 Jul 16:52:26 16:56:43 48° 288° (WNW) 17:00:57 437.445
HORYU 2 06 Jul 16:53:39 16:57:40 34° 263° (W) 17:01:42 437.375
PCSat 06 Jul 17:03:18 17:08:22 39° 310° (NW) 17:13:27 145.827
BEESAT 3 06 Jul 17:05:11 17:08:21 22° 246° (WSW) 17:11:24 437.485
AIST 2 06 Jul 17:15:29 17:19:44 84° 239° (WSW) 17:23:52 435.215
JAS-2 06 Jul 17:19:44 17:23:13 17° 273° (W) 17:26:36 435.910
BEESAT 2 06 Jul 17:20:48 17:23:48 19° 247° (WSW) 17:26:40 435.950
MOZHAYETS 4 06 Jul 17:25:55 17:30:22 43° 98° (E) 17:34:48
CUTE-I 06 Jul 17:27:29 17:31:27 22° 63° (ENE) 17:35:34 437.470
Cosmos 2504 06 Jul 17:33:35 17:41:08 88° 263° (W) 17:49:16 435.465 / 435.565
AIST 1 06 Jul 17:37:23 17:39:24 12° 295° (WNW) 17:41:12
STARS 06 Jul 17:39:14 17:42:54 26° 293° (WNW) 17:46:30 437.465
YUBILEINY 06 Jul 17:39:22 17:42:01 11° 287° (WNW) 17:43:57 435.215
O/OREOS (USA 219) 06 Jul 17:49:53 17:54:18 52° 251° (WSW) 17:58:43 437.305
SO-50 06 Jul 17:54:10 17:58:45 44° 312° (NW) 18:03:28 436.795
Cubesat XI-IV 06 Jul 18:01:09 18:06:09 41° 69° (ENE) 18:11:13 437.490
Cosmos 2491 06 Jul 18:01:42 18:08:09 21° 302° (WNW) 18:14:13 435.465 / 435.565
GONETS M04 06 Jul 18:20:26 18:23:44 13° 50° (NE) 18:27:38
CUSAT 1 06 Jul 18:29:02 18:30:36 15° 70° (ENE) 18:32:12 437.405
HO-68 06 Jul 18:33:51 18:35:11 11° 46° (NE) 18:36:54 435.675
AO-7 06 Jul 18:39:42 18:43:08 12° 277° (W) 18:45:54 29.400- 29.500
PCSat 06 Jul 18:52:45 18:53:28 10° 334° (NNW) 18:54:00 145.827
MOZHAYETS 4 06 Jul 19:03:45 19:07:20 22° 294° (WNW) 19:10:49
GOMX 1 06 Jul 19:04:04 19:05:33 12° 62° (ENE) 19:07:15 467.674
CUTE-I 06 Jul 19:05:54 19:11:10 56° 260° (W) 19:16:29 437.470
Cosmos 2504 06 Jul 19:27:47 19:32:32 17° 279° (W) 19:37:01 435.465 / 435.565
DOVE 4 06 Jul 19:35:36 19:37:53 14° 64° (ENE) 19:40:18 437.250
CUBESAT XI-V 06 Jul 19:36:03 19:40:47 83° 103° (ESE) 19:45:26 437.345
BRITE-PL 06 Jul 19:37:09 19:42:04 39° 71° (ENE) 19:46:44 437.365/2234.400
SO-50 06 Jul 19:38:49 19:40:38 12° 335° (NNW) 19:42:19 436.795
Cubesat XI-IV 06 Jul 19:41:49 19:46:25 28° 266° (W) 19:50:58 437.490
DANDE 06 Jul 19:49:08 19:51:48 46° 264° (W) 19:54:18 436.750
SEEDS 06 Jul 19:49:49 19:51:17 12° 62° (ENE) 19:52:57 437.485
STRAND 1 06 Jul 19:50:56 19:55:45 39° 97° (E) 20:00:32 437.568
CINEMA 3 06 Jul 20:04:26 20:05:48 12° 63° (ENE) 20:07:22 145.822/145.860
CUSAT 1 06 Jul 20:11:58 20:13:04 12° 268° (W) 20:14:04 437.405
GONETS M04 06 Jul 20:14:27 20:23:02 60° 76° (ENE) 20:31:36
HO-68 06 Jul 20:14:37 20:21:24 49° 66° (ENE) 20:28:15 435.675
COMPASS 1 06 Jul 20:21:19 20:24:19 20° 66° (ENE) 20:27:26 437.405
PRISM 06 Jul 20:23:38 20:27:51 79° 103° (ESE) 20:32:01 437.425
Oscar 11 06 Jul 20:31:24 20:32:33 11° 61° (ENE) 20:33:55 145.826/435.025
CUBEBUG 2 06 Jul 20:36:23 20:37:44 12° 63° (ENE) 20:39:15 437.445
GOMX 1 06 Jul 20:38:03 20:43:08 86° 81° (E) 20:47:55 467.674
CUTE 1.7 + AOD 2 06 Jul 20:38:16 20:42:16 45° 72° (ENE) 20:46:20 437.475
Cosmos 2499 06 Jul 20:40:38 20:46:08 21° 62° (ENE) 20:52:14 435.465 / 435.565
CANX-2 06 Jul 20:41:54 20:46:00 55° 74° (ENE) 20:50:09 2200.000
FUNcube-1 06 Jul 21:02:21 21:04:12 13° 63° (ENE) 21:06:12 145.935
DOVE 4 06 Jul 21:10:26 21:15:14 71° 258° (WSW) 21:19:47 437.250
CUBESAT XI-V 06 Jul 21:15:31 21:17:36 13° 299° (WNW) 21:19:29 437.345
BRITE-PL 06 Jul 21:15:59 21:20:39 29° 266° (W) 21:25:00 437.365/2234.400
UWE-3 06 Jul 21:19:53 21:23:19 25° 68° (ENE) 21:26:48 435.000/436.395/437.385
M-CUBED/EXP-1 PRIME 06 Jul 21:21:59 21:25:21 22° 99° (E) 21:28:58 437.505
SEEDS 06 Jul 21:22:23 21:26:33 72° 259° (W) 21:30:46 437.485
DELFI C3 06 Jul 21:26:19 21:29:40 26° 69° (ENE) 21:33:06 145.870
AAUSAT CUBESAT 2 06 Jul 21:27:10 21:31:19 87° 71° (ENE) 21:35:30 437.432
STRAND 1 06 Jul 21:30:26 21:34:49 28° 294° (WNW) 21:39:07 437.568
CINEMA 3 06 Jul 21:38:04 21:42:32 78° 258° (WSW) 21:46:50 145.822/145.860
DX 1 06 Jul 21:46:15 21:48:56 16° 63° (ENE) 21:51:43 434.975-435.025
COMPASS 1 06 Jul 21:55:53 21:59:46 38° 263° (W) 22:03:40 437.405
HUMSAT D 06 Jul 21:59:57 22:03:10 23° 68° (ENE) 22:06:26 437.325/437.525
ZACube-1 06 Jul 22:00:58 22:05:03 54° 73° (ENE) 22:09:08 437.345
PRISM 06 Jul 22:01:23 22:02:43 11° 299° (WNW) 22:03:51 437.425
UKube-1 06 Jul 22:02:36 22:05:52 22° 66° (ENE) 22:09:13 .
HO-68 06 Jul 22:02:56 22:09:22 35° 265° (W) 22:15:44 435.675
Oscar 11 06 Jul 22:03:51 22:08:09 82° 257° (WSW) 22:12:29 145.826/435.025
CUBEBUG 2 06 Jul 22:09:41 22:13:57 73° 258° (WSW) 22:18:08 437.445
GONETS M04 06 Jul 22:12:03 22:19:25 31° 276° (W) 22:26:33
CUTE 1.7 + AOD 2 06 Jul 22:15:41 22:18:29 17° 270° (W) 22:21:07 437.475
AUBIESAT-1 06 Jul 22:19:12 22:23:30 75° 108° (ESE) 22:28:04 437.475
CANX-2 06 Jul 22:20:07 22:22:21 14° 272° (W) 22:24:25 2200.000
GOMX 1 06 Jul 22:20:19 22:21:54 11° 273° (W) 22:23:08 467.674
PCSat 06 Jul 22:25:27 22:26:11 10° 27° (NNE) 22:27:05 145.827
Cosmos 2499 06 Jul 22:32:26 22:40:23 87° 263° (W) 22:48:54 435.465 / 435.565
AISAT 06 Jul 22:33:07 22:36:53 28° 67° (ENE) 22:40:42 437.250
FUNcube-1 06 Jul 22:35:56 22:40:05 63° 260° (W) 22:44:13 145.935
ANTELSAT 06 Jul 22:37:29 22:39:07 12° 88° (E) 22:41:00 437.575/2403.000
CUBEBUG 1 06 Jul 22:43:32 22:46:40 20° 65° (ENE) 22:49:55 437.445
TIGRISAT 06 Jul 22:47:56 22:50:27 15° 90° (E) 22:53:09 435.000
50 SAT 06 Jul 22:50:25 22:54:00 40° 72° (ENE) 22:57:38 437.505
UWE-3 06 Jul 22:56:06 22:59:48 29° 265° (W) 23:03:26 435.000/436.395/437.385
M-CUBED/EXP-1 PRIME 06 Jul 22:56:14 23:00:15 40° 294° (WNW) 23:04:29 437.505
DELFI C3 06 Jul 23:01:19 23:04:43 26° 266° (W) 23:08:06 145.870
SO-50 06 Jul 23:05:22 23:06:35 11° 24° (NNE) 23:07:56 436.795
ESTCUBE 1 06 Jul 23:13:52 23:18:12 45° 71° (ENE) 23:22:34 437.505/2401.250
DX 1 06 Jul 23:20:29 23:24:47 55° 259° (W) 23:29:06 434.975-435.025
VELOX 1 06 Jul 23:20:44 23:25:12 82° 74° (ENE) 23:29:42 145.980
UNISAT 6 06 Jul 23:27:34 23:31:44 40° 98° (E) 23:35:59 437.425
HUMSAT D 06 Jul 23:35:06 23:38:47 31° 264° (W) 23:42:25 437.325/437.525
SPROUT 06 Jul 23:35:36 23:38:41 20° 66° (ENE) 23:41:51 437.525
UKube-1 06 Jul 23:37:42 23:41:47 39° 262° (W) 23:45:52 .
ZACube-1 06 Jul 23:39:38 23:41:49 13° 271° (W) 23:43:48 437.345
QB50P1 06 Jul 23:43:09 23:46:33 24° 94° (E) 23:49:59 145.935-145.965
AUBIESAT-1 06 Jul 23:55:34 23:57:49 14° 302° (WNW) 23:59:58 437.475
NANOSAT C BR1 06 Jul 23:56:03 23:59:49 32° 96° (E) 00:03:37 145.865
DUCHIFAT 1 07 Jul 00:01:59 00:05:51 36° 97° (E) 00:09:45 145.980
PCSat 07 Jul 00:06:10 00:11:16 40° 50° (NE) 00:16:21 145.827
TISAT 1 07 Jul 00:06:16 00:09:49 27° 68° (ENE) 00:13:26 437.305
BUGSAT 1 07 Jul 00:07:35 00:11:01 27° 95° (E) 00:14:29 437.445
AISAT 07 Jul 00:09:24 00:13:24 31° 264° (W) 00:17:20 437.250
POLYITAN 1 07 Jul 00:10:20 00:14:25 48° 99° (E) 00:18:31 437.675
ANTELSAT 07 Jul 00:12:02 00:16:26 69° 285° (WNW) 00:20:53 437.575/2403.000
Cosmos 2491 07 Jul 00:18:02 00:18:27 10° 46° (NE) 00:19:32 435.465 / 435.565
CUBEBUG 1 07 Jul 00:18:29 00:22:45 45° 262° (W) 00:27:01 437.445
TIGRISAT 07 Jul 00:23:16 00:27:34 54° 287° (WNW) 00:31:56 435.000
50 SAT 07 Jul 00:26:28 00:28:52 15° 269° (W) 00:31:06 437.505
SWISSCUBE 07 Jul 00:27:04 00:28:09 11° 58° (ENE) 00:29:29 437.505
Cosmos 2499 07 Jul 00:27:36 00:32:41 18° 280° (W) 00:37:29 435.465 / 435.565
ITUPSAT 1 07 Jul 00:33:21 00:34:45 11° 59° (ENE) 00:36:23 437.325
QB50P2 07 Jul 00:39:33 00:43:47 80° 284° (WNW) 00:47:59 145.880/145.840
POPSAT HIP 1 07 Jul 00:39:35 00:43:48 82° 284° (WNW) 00:48:00 437.405
SO-50 07 Jul 00:43:54 00:48:34 39° 46° (NE) 00:53:10 436.795
ESTCUBE 1 07 Jul 00:52:02 00:55:20 19° 269° (W) 00:58:31 437.505/2401.250
VELOX 1 07 Jul 01:01:49 01:02:26 10° 274° (W) 01:02:45 145.980
UNISAT 6 07 Jul 01:04:55 01:08:17 21° 294° (WNW) 01:11:37 437.425
SPROUT 07 Jul 01:10:25 01:14:30 41° 262° (W) 01:18:36 437.525
QB50P1 07 Jul 01:18:42 01:22:27 31° 291° (WNW) 01:26:09 145.935-145.965
NANOSAT C BR1 07 Jul 01:32:07 01:35:31 24° 293° (WNW) 01:38:50 145.865
RS-15 07 Jul 01:35:45 01:45:13 38° 108° (ESE) 01:55:11 29.354- 29.394
DUCHIFAT 1 07 Jul 01:38:16 01:41:28 21° 294° (WNW) 01:44:35 145.980
TISAT 1 07 Jul 01:41:51 01:45:32 28° 265° (W) 01:49:11 437.305
BUGSAT 1 07 Jul 01:43:03 01:46:27 26° 292° (WNW) 01:49:46 437.445
BEESAT 07 Jul 01:44:39 01:49:16 52° 71° (ENE) 01:53:57 436.000
POLYITAN 1 07 Jul 01:47:13 01:50:00 17° 295° (WNW) 01:52:39 437.675
PCSat 07 Jul 01:49:45 01:54:37 34° 249° (WSW) 01:59:25 145.827
SWISSCUBE 07 Jul 02:00:30 02:05:17 81° 74° (ENE) 02:10:07 437.505
AIST 1 07 Jul 02:03:19 02:06:27 19° 69° (ENE) 02:09:40
ITUPSAT 1 07 Jul 02:07:08 02:11:57 84° 73° (ENE) 02:16:47 437.325
Cosmos 2491 07 Jul 02:09:47 02:18:14 50° 73° (ENE) 02:26:38 435.465 / 435.565
KKS-1 07 Jul 02:16:32 02:19:42 20° 65° (ENE) 02:23:00 437.445
SO-50 07 Jul 02:24:37 02:29:03 32° 245° (WSW) 02:33:20 436.795
Oscar 19 07 Jul 02:28:10 02:33:09 49° 99° (E) 02:38:08 437.125/150
